• In Italy
  • List of Countries
  • For 7 days
  • Water Temperature
  • Satellite Maps
  • Weather Map
  • Weather Widgets
  • user-avatar
    Login

    Hourly Weather Orange Walk

    Today, 21 February, Wednesday

    Time Temperature Precipitation Wind Pressure Humidity
    00:00 +26°C° 0 mm 4 mps 761 mmHg 87%
    01:00 +25°C° 0 mm 4 mps 760 mmHg 88%
    02:00 +25°C° 0 mm 4 mps 760 mmHg 88%
    03:00 +25°C° 0 mm 3 mps 760 mmHg 89%
    04:00 +25°C° 0 mm 3 mps 760 mmHg 89%
    05:00 +25°C° 0 mm 3 mps 761 mmHg 89%
    06:00 +25°C° 0 mm 3 mps 761 mmHg 89%
    07:00 +26°C° 0.1 mm 4 mps 761 mmHg 83%
    08:00 +28°C° 0.1 mm 4 mps 761 mmHg 76%
    09:00 +29°C° 0.1 mm 5 mps 762 mmHg 70%
    10:00 +29°C° 0.7 mm 5 mps 762 mmHg 72%
    11:00 +29°C° 0.7 mm 5 mps 762 mmHg 74%
    12:00 +29°C° 0.7 mm 5 mps 762 mmHg 76%
    13:00 +29°C° 0.7 mm 5 mps 762 mmHg 75%
    14:00 +29°C° 0.7 mm 4 mps 761 mmHg 74%
    15:00 +29°C° 0.7 mm 4 mps 761 mmHg 73%
    16:00 +28°C° 0.1 mm 4 mps 761 mmHg 76%
    17:00 +27°C° 0.1 mm 3 mps 761 mmHg 80%
    18:00 +26°C° 0.1 mm 2 mps 761 mmHg 83%
    19:00 +25°C° 0 mm 2 mps 761 mmHg 87%
    20:00 +25°C° 0 mm 2 mps 762 mmHg 90%
    21:00 +24°C° 0 mm 2 mps 762 mmHg 93%
    22:00 +24°C° 0.1 mm 2 mps 762 mmHg 94%
    23:00 +24°C° 0.1 mm 2 mps 762 mmHg 95%

    Tomorrow, 22 February, Thursday

    Time Temperature Precipitation Wind Pressure Humidity
    00:00 +24°C° 0.1 mm 2 mps 762 mmHg 95%
    01:00 +24°C° 0.1 mm 2 mps 762 mmHg 96%
    02:00 +24°C° 0.1 mm 2 mps 761 mmHg 96%
    03:00 +24°C° 0.1 mm 2 mps 761 mmHg 96%
    04:00 +24°C° 0 mm 2 mps 761 mmHg 96%
    05:00 +23°C° 0 mm 2 mps 761 mmHg 97%
    06:00 +23°C° 0 mm 2 mps 761 mmHg 97%
    07:00 +25°C° 0.2 mm 2 mps 762 mmHg 91%
    08:00 +26°C° 0.2 mm 3 mps 763 mmHg 85%
    09:00 +28°C° 0.2 mm 3 mps 763 mmHg 79%
    10:00 +28°C° 0.3 mm 3 mps 763 mmHg 78%
    11:00 +28°C° 0.3 mm 3 mps 763 mmHg 77%
    12:00 +28°C° 0.3 mm 3 mps 763 mmHg 76%
    13:00 +29°C° 0.5 mm 3 mps 762 mmHg 74%
    14:00 +29°C° 0.5 mm 3 mps 761 mmHg 73%
    15:00 +30°C° 0.5 mm 4 mps 761 mmHg 71%
    16:00 +28°C° 0.4 mm 3 mps 761 mmHg 77%
    17:00 +27°C° 0.4 mm 3 mps 761 mmHg 84%
    18:00 +25°C° 0.4 mm 2 mps 761 mmHg 90%
    19:00 +25°C° 0.2 mm 2 mps 762 mmHg 92%
    20:00 +24°C° 0.2 mm 2 mps 762 mmHg 94%
    21:00 +24°C° 0.2 mm 2 mps 762 mmHg 96%
    22:00 +24°C° 0.3 mm 2 mps 762 mmHg 96%
    23:00 +23°C° 0.3 mm 2 mps 762 mmHg 97%

    Day after tomorrow, 23 February, Friday

    Time Temperature Precipitation Wind Pressure Humidity
    00:00 +23°C° 0.3 mm 2 mps 762 mmHg 97%
    01:00 +23°C° 0 mm 2 mps 762 mmHg 97%
    02:00 +23°C° 0 mm 2 mps 762 mmHg 97%
    03:00 +23°C° 0 mm 2 mps 761 mmHg 98%
    04:00 +23°C° 0 mm 2 mps 761 mmHg 97%
    05:00 +23°C° 0 mm 2 mps 761 mmHg 97%
    06:00 +23°C° 0 mm 2 mps 762 mmHg 97%
    07:00 +25°C° 0.1 mm 2 mps 762 mmHg 91%
    08:00 +26°C° 0.1 mm 3 mps 763 mmHg 85%
    09:00 +28°C° 0.1 mm 3 mps 763 mmHg 80%
    10:00 +29°C° 0.2 mm 3 mps 763 mmHg 72%
    11:00 +30°C° 0.2 mm 3 mps 762 mmHg 65%
    12:00 +33°C° 0.2 mm 3 mps 762 mmHg 58%
    13:00 +31°C° 0.2 mm 3 mps 761 mmHg 58%
    14:00 +31°C° 0.2 mm 3 mps 761 mmHg 59%
    15:00 +31°C° 0.2 mm 3 mps 760 mmHg 60%
    16:00 +29°C° 0 mm 3 mps 760 mmHg 67%
    17:00 +28°C° 0 mm 2 mps 760 mmHg 75%
    18:00 +26°C° 0 mm 2 mps 760 mmHg 83%
    19:00 +25°C° 0 mm 2 mps 761 mmHg 87%
    20:00 +25°C° 0 mm 2 mps 761 mmHg 90%
    21:00 +24°C° 0 mm 2 mps 761 mmHg 94%
    22:00 +24°C° 0 mm 1 mps 761 mmHg 95%
    23:00 +24°C° 0 mm 1 mps 761 mmHg 96%

    24 February, Saturday

    Time Temperature Precipitation Wind Pressure Humidity
    00:00 +23°C° 0 mm 1 mps 761 mmHg 97%
    01:00 +23°C° 0 mm 1 mps 760 mmHg 97%
    02:00 +23°C° 0 mm 1 mps 760 mmHg 97%
    03:00 +23°C° 0 mm 1 mps 759 mmHg 97%
    04:00 +23°C° 0.1 mm 1 mps 759 mmHg 97%
    05:00 +23°C° 0.1 mm 1 mps 759 mmHg 98%
    06:00 +23°C° 0.1 mm 1 mps 760 mmHg 98%
    07:00 +25°C° 0.2 mm 2 mps 760 mmHg 91%
    08:00 +26°C° 0.2 mm 2 mps 761 mmHg 85%
    09:00 +28°C° 0.2 mm 2 mps 761 mmHg 79%
    10:00 +29°C° 0.2 mm 3 mps 761 mmHg 72%
    11:00 +30°C° 0.2 mm 3 mps 760 mmHg 65%
    12:00 +31°C° 0.2 mm 3 mps 760 mmHg 58%
    13:00 +31°C° 0.1 mm 3 mps 759 mmHg 57%
    14:00 +33°C° 0.1 mm 3 mps 758 mmHg 56%
    15:00 +33°C° 0.1 mm 3 mps 757 mmHg 55%
    16:00 +30°C° 0 mm 3 mps 758 mmHg 63%
    17:00 +28°C° 0 mm 2 mps 758 mmHg 71%
    18:00 +27°C° 0 mm 2 mps 758 mmHg 79%
    19:00 +26°C° 0 mm 2 mps 758 mmHg 84%
    20:00 +25°C° 0 mm 2 mps 759 mmHg 89%
    21:00 +24°C° 0 mm 2 mps 760 mmHg 94%
    22:00 +23°C° 0 mm 2 mps 759 mmHg 95%
    23:00 +23°C° 0 mm 2 mps 759 mmHg 95%

    25 February, Sunday

    Time Temperature Precipitation Wind Pressure Humidity
    00:00 +23°C° 0 mm 2 mps 759 mmHg 96%
    01:00 +23°C° 0 mm 2 mps 759 mmHg 97%
    02:00 +23°C° 0 mm 2 mps 758 mmHg 97%
    03:00 +23°C° 0 mm 2 mps 758 mmHg 97%
    04:00 +23°C° 0 mm 2 mps 758 mmHg 97%
    05:00 +23°C° 0 mm 2 mps 758 mmHg 97%
    06:00 +23°C° 0 mm 2 mps 759 mmHg 97%
    07:00 +25°C° 0.1 mm 2 mps 759 mmHg 90%
    08:00 +27°C° 0.1 mm 3 mps 760 mmHg 82%
    09:00 +29°C° 0.1 mm 4 mps 760 mmHg 75%
    10:00 +30°C° 0.1 mm 4 mps 760 mmHg 68%
    11:00 +32°C° 0.1 mm 4 mps 760 mmHg 61%
    12:00 +33°C° 0.1 mm 4 mps 759 mmHg 55%
    13:00 +33°C° 0 mm 4 mps 759 mmHg 54%
    14:00 +33°C° 0 mm 4 mps 758 mmHg 54%
    15:00 +33°C° 0 mm 4 mps 757 mmHg 53%
    16:00 +30°C° 0 mm 3 mps 758 mmHg 61%
    17:00 +28°C° 0 mm 3 mps 758 mmHg 70%
    18:00 +27°C° 0 mm 2 mps 758 mmHg 78%
    19:00 +26°C° 0 mm 2 mps 759 mmHg 84%
    20:00 +25°C° 0 mm 2 mps 759 mmHg 89%
    21:00 +24°C° 0 mm 2 mps 760 mmHg 94%
    22:00 +24°C° 0 mm 2 mps 760 mmHg 94%
    23:00 +24°C° 0 mm 2 mps 760 mmHg 95%

    26 February, Monday

    Time Temperature Precipitation Wind Pressure Humidity
    00:00 +24°C° 0 mm 2 mps 760 mmHg 95%
    01:00 +24°C° 0 mm 2 mps 759 mmHg 95%
    02:00 +24°C° 0 mm 2 mps 759 mmHg 96%
    03:00 +24°C° 0 mm 2 mps 759 mmHg 96%
    04:00 +24°C° 0 mm 2 mps 759 mmHg 96%
    05:00 +24°C° 0 mm 2 mps 759 mmHg 96%
    06:00 +24°C° 0 mm 2 mps 760 mmHg 96%
    07:00 +25°C° 0.1 mm 2 mps 760 mmHg 89%
    08:00 +27°C° 0.1 mm 3 mps 761 mmHg 82%
    09:00 +29°C° 0.1 mm 3 mps 761 mmHg 75%
    10:00 +30°C° 0.1 mm 3 mps 761 mmHg 69%
    11:00 +30°C° 0.1 mm 4 mps 761 mmHg 64%
    12:00 +32°C° 0.1 mm 4 mps 760 mmHg 59%
    13:00 +32°C° 0.2 mm 4 mps 760 mmHg 59%
    14:00 +32°C° 0.2 mm 4 mps 759 mmHg 59%
    15:00 +32°C° 0.2 mm 4 mps 758 mmHg 59%
    16:00 +30°C° 0.1 mm 3 mps 759 mmHg 67%
    17:00 +28°C° 0.1 mm 3 mps 759 mmHg 74%
    18:00 +27°C° 0.1 mm 2 mps 759 mmHg 82%
    19:00 +26°C° 0 mm 2 mps 760 mmHg 86%
    20:00 +25°C° 0 mm 2 mps 760 mmHg 91%
    21:00 +24°C° 0 mm 2 mps 761 mmHg 95%
    22:00 +24°C° 0 mm 2 mps 761 mmHg 96%
    23:00 +23°C° 0 mm 2 mps 761 mmHg 97%
    Show more